Home   Weather   Cambridge   Past weeks

Flag for Canada Past Weather in Cambridge, Ontario, Canada — Yesterday and Last 2 Weeks

Now
36 °F

Partly sunny.


Feels Like: 36 °F
Forecast: N/A
Wind: 2 mph from North

Location: Waterloo Well

Current Time: Jan 16, 2017 at 5:07:42 pm

Latest Report: Jan 16, 2017 at 4:00 pm


Visibility: 9 mi

Pressure: 30.28 "Hg

Humidity: 41%

Dew Point: 14 °F

Location of CambridgeLocation

Past Weather in Cambridge — Graph

°F

Cambridge Temperature Yesterday

Maximum temperature yesterday: 30 °F (at 2:03 pm)
Minimum temperature yesterday: 16 °F (at 8:00 am)
Average temperature yesterday: 23 °F

High & Low Weather Summary for the Past Weeks

 TemperatureHumidityPressure
High48 °F (Jan 12, 2:41 am)100% (Jan 2, 5:00 am)30.78 "Hg (Jan 2, 5:00 am)
Low3 °F (Jan 7, 8:00 am)41% (Jan 16, 3:00 pm)29.44 "Hg (Jan 10, 11:29 pm)
Average24 °F83%30.09 "Hg
* Reported Jan 1 3:00 pm — Jan 16 3:00 pm, Cambridge, Weather by CustomWeather, © 2017

Note: Actual official high and low records may vary slightly from our data, if they occured in-between our weather recording intervals... More about our weather records

Advertising

Cambridge Weather History for the Previous 24 Hours

Scroll right to see more
 ConditionsComfort  
Time TempWeatherWind HumidityBarometerVisibility
3:00 pm
Mon, Jan 16
36 °FPassing clouds.6 mph41%30.29 "Hg9 mi
2:00 pm34 °FPassing clouds.3 mph51%30.30 "Hg9 mi
1:00 pm34 °FMostly cloudy.5 mph56%30.32 "Hg9 mi
12:00 pm32 °FOvercast.5 mph64%30.34 "Hg9 mi
11:00 am28 °FMostly cloudy.10 mph74%30.37 "Hg9 mi
10:03 am27 °FIce fog.7 mph86%30.38 "Hg6 mi
10:00 am25 °FIce fog.8 mph93%30.38 "Hg5 mi
9:00 am21 °FIce fog.No wind93%30.37 "Hg3 mi
8:28 am18 °FIce fog.2 mph93%30.37 "Hg3 mi
8:00 am18 °FIce fog.3 mph93%30.37 "Hg2 mi
7:42 am19 °FIce fog.2 mph93%30.37 "Hg2 mi
7:00 am18 °FIce fog.2 mph93%30.37 "Hg3 mi
6:00 am19 °FIce fog.3 mph93%30.36 "Hg4 mi
5:00 am19 °FIce fog.5 mph93%30.35 "Hg4 mi
4:00 am19 °FIce fog.6 mph86%30.36 "Hg4 mi
3:00 am19 °FIce fog.3 mph93%30.37 "Hg4 mi
2:00 am19 °FIce fog.3 mph93%30.36 "Hg4 mi
1:00 am21 °FIce fog.2 mph93%30.36 "Hg3 mi
12:00 am21 °FIce fog.2 mph93%30.37 "Hg3 mi
11:18 pm
Sun, Jan 15
21 °FIce fog.2 mph93%30.37 "Hg5 mi
11:00 pm21 °FClear.5 mph93%30.37 "Hg7 mi
10:00 pm23 °FClear.2 mph86%30.38 "Hg9 mi
9:00 pm23 °FClear.7 mph86%30.38 "Hg9 mi
8:00 pm25 °FClear.5 mph80%30.38 "Hg9 mi
7:00 pm25 °FClear.6 mph80%30.37 "Hg9 mi
6:00 pm27 °FPassing clouds.No wind80%30.39 "Hg9 mi
5:00 pm28 °FPartly sunny.2 mph74%30.38 "Hg9 mi
Weather by CustomWeather, © 2017

See weather overviewHow to use our weather pages